Location: Bremen
(53.0793°N, 8.8017°E)
Time: 21:06:47
(UTC+01:00)

Transit 2A - Pass Details

Date: 02 December 2022
Orbit: 593 x 963 km, 66.7° (Epoch: 05 February)

Event Time Altitude Azimuth Distance (km) Brightness Sun altitude
Rises 18:10:02 0° 314° (NW) 3,196 9.7 -16.8°
Reaches altitude 10° 18:12:36 10° 303° (WNW) 2,330 9.1 -17.2°
Maximum altitude 18:17:07 28° 246° (WSW) 1,504 8.3 -17.9°
Drops below altitude 10° 18:21:59 10° 189° (S) 2,524 8.9 -18.6°
Sets 18:24:53 0° 179° (S) 3,513 9.6 -19.0°
